When you browse on this site, cookies collect data to enhance your experience and personalize the content and advertising you see.
Visit our Privacy Policy to learn more. By continuing to use the site, you agree to this use of cookies and data.
  • en Suisse
  • Liste des pays
  • À 7 jours
  • Température de l'eau
  • Carte satellitaire
  • Carte météo
  • Widgets météo
  • user-avatar
    Se connecter

    Météo par heure à Phnom Penh

    Ce jour, 17 Décembre, Lundi

    Heure Température Précipitation Vent Pression Humidité
    00:00 +28°C° 0 mm 3 m/s 758 mmHg 73%
    01:00 +27°C° 0 mm 3 m/s 758 mmHg 73%
    02:00 +27°C° 0 mm 3 m/s 758 mmHg 74%
    03:00 +27°C° 0 mm 3 m/s 758 mmHg 75%
    04:00 +27°C° 0 mm 3 m/s 758 mmHg 76%
    05:00 +27°C° 0 mm 3 m/s 759 mmHg 77%
    06:00 +26°C° 0 mm 3 m/s 759 mmHg 78%
    07:00 +27°C° 0 mm 3 m/s 759 mmHg 79%
    08:00 +28°C° 0 mm 4 m/s 760 mmHg 74%
    09:00 +29°C° 0 mm 5 m/s 760 mmHg 68%
    10:00 +32°C° 0 mm 6 m/s 760 mmHg 63%
    11:00 +33°C° 0 mm 6 m/s 759 mmHg 60%
    12:00 +34°C° 0 mm 6 m/s 759 mmHg 57%
    13:00 +35°C° 0 mm 5 m/s 758 mmHg 53%
    14:00 +35°C° 0 mm 5 m/s 758 mmHg 54%
    15:00 +35°C° 0 mm 5 m/s 757 mmHg 54%
    16:00 +35°C° 0 mm 4 m/s 757 mmHg 55%
    17:00 +34°C° 0 mm 4 m/s 757 mmHg 58%
    18:00 +31°C° 0 mm 3 m/s 758 mmHg 62%
    19:00 +30°C° 0 mm 3 m/s 758 mmHg 64%
    20:00 +30°C° 0 mm 4 m/s 759 mmHg 63%
    21:00 +29°C° 0 mm 4 m/s 759 mmHg 63%
    22:00 +29°C° 0 mm 5 m/s 759 mmHg 63%
    23:00 +28°C° 0 mm 5 m/s 759 mmHg 65%

    Demain, 18 Décembre, Mardi

    Heure Température Précipitation Vent Pression Humidité
    00:00 +27°C° 0 mm 4 m/s 759 mmHg 66%
    01:00 +27°C° 0 mm 4 m/s 759 mmHg 68%
    02:00 +26°C° 0 mm 3 m/s 759 mmHg 69%
    03:00 +26°C° 0 mm 3 m/s 759 mmHg 71%
    04:00 +25°C° 0 mm 3 m/s 758 mmHg 73%
    05:00 +25°C° 0 mm 3 m/s 759 mmHg 75%
    06:00 +25°C° 0 mm 2 m/s 759 mmHg 76%
    07:00 +25°C° 0 mm 2 m/s 759 mmHg 78%
    08:00 +27°C° 0 mm 3 m/s 759 mmHg 72%
    09:00 +28°C° 0 mm 4 m/s 760 mmHg 67%
    10:00 +30°C° 0 mm 4 m/s 760 mmHg 61%
    11:00 +32°C° 0 mm 4 m/s 759 mmHg 58%
    12:00 +33°C° 0 mm 4 m/s 758 mmHg 55%
    13:00 +34°C° 0 mm 4 m/s 758 mmHg 52%
    14:00 +34°C° 0 mm 3 m/s 757 mmHg 51%
    15:00 +35°C° 0 mm 3 m/s 757 mmHg 51%
    16:00 +35°C° 0 mm 3 m/s 756 mmHg 51%
    17:00 +32°C° 0 mm 2 m/s 756 mmHg 54%
    18:00 +31°C° 0 mm 2 m/s 757 mmHg 58%
    19:00 +30°C° 0 mm 2 m/s 757 mmHg 61%
    20:00 +29°C° 0 mm 2 m/s 757 mmHg 63%
    21:00 +29°C° 0 mm 2 m/s 758 mmHg 65%
    22:00 +28°C° 0 mm 2 m/s 758 mmHg 66%
    23:00 +28°C° 0 mm 2 m/s 758 mmHg 68%

    Après-demain, 19 Décembre, Mercredi

    Heure Température Précipitation Vent Pression Humidité
    00:00 +27°C° 0 mm 2 m/s 758 mmHg 69%
    01:00 +27°C° 0 mm 2 m/s 758 mmHg 71%
    02:00 +26°C° 0 mm 2 m/s 758 mmHg 72%
    03:00 +26°C° 0 mm 2 m/s 758 mmHg 74%
    04:00 +25°C° 0 mm 3 m/s 758 mmHg 75%
    05:00 +25°C° 0 mm 3 m/s 758 mmHg 76%
    06:00 +25°C° 0 mm 3 m/s 759 mmHg 77%
    07:00 +25°C° 0 mm 3 m/s 759 mmHg 78%
    08:00 +27°C° 0 mm 3 m/s 759 mmHg 73%
    09:00 +28°C° 0 mm 3 m/s 759 mmHg 67%
    10:00 +30°C° 0 mm 4 m/s 760 mmHg 62%
    11:00 +31°C° 0 mm 3 m/s 759 mmHg 59%
    12:00 +33°C° 0 mm 3 m/s 758 mmHg 56%
    13:00 +34°C° 0 mm 3 m/s 757 mmHg 52%
    14:00 +35°C° 0 mm 2 m/s 757 mmHg 52%
    15:00 +35°C° 0 mm 2 m/s 756 mmHg 51%
    16:00 +35°C° 0 mm 2 m/s 756 mmHg 51%
    17:00 +33°C° 0 mm 1 m/s 756 mmHg 54%
    18:00 +31°C° 0 mm 1 m/s 757 mmHg 58%
    19:00 +30°C° 0 mm 1 m/s 757 mmHg 61%
    20:00 +30°C° 0 mm 1 m/s 758 mmHg 63%
    21:00 +29°C° 0 mm 1 m/s 758 mmHg 64%
    22:00 +29°C° 0 mm 2 m/s 759 mmHg 66%
    23:00 +28°C° 0 mm 1 m/s 758 mmHg 67%

    20 Décembre, Jeudi

    Heure Température Précipitation Vent Pression Humidité
    00:00 +28°C° 0 mm 1 m/s 758 mmHg 69%
    01:00 +28°C° 0 mm 1 m/s 758 mmHg 70%
    02:00 +27°C° 0 mm 1 m/s 758 mmHg 72%
    03:00 +27°C° 0 mm 1 m/s 758 mmHg 74%
    04:00 +27°C° 0 mm 1 m/s 757 mmHg 76%
    05:00 +27°C° 0 mm 1 m/s 758 mmHg 77%
    06:00 +27°C° 0 mm 1 m/s 758 mmHg 78%
    07:00 +27°C° 0 mm 1 m/s 758 mmHg 78%
    08:00 +28°C° 0 mm 1 m/s 759 mmHg 72%
    09:00 +30°C° 0 mm 2 m/s 759 mmHg 66%
    10:00 +31°C° 0 mm 2 m/s 759 mmHg 60%
    11:00 +32°C° 0 mm 2 m/s 758 mmHg 57%
    12:00 +34°C° 0 mm 2 m/s 757 mmHg 54%
    13:00 +35°C° 0 mm 3 m/s 757 mmHg 51%
    14:00 +35°C° 0 mm 2 m/s 756 mmHg 51%
    15:00 +35°C° 0 mm 2 m/s 755 mmHg 50%
    16:00 +36°C° 0 mm 2 m/s 754 mmHg 50%
    17:00 +34°C° 0 mm 2 m/s 755 mmHg 54%
    18:00 +32°C° 0 mm 2 m/s 756 mmHg 59%
    19:00 +30°C° 0 mm 1 m/s 756 mmHg 63%
    20:00 +30°C° 0 mm 2 m/s 757 mmHg 65%
    21:00 +29°C° 0 mm 2 m/s 757 mmHg 66%
    22:00 +29°C° 0 mm 2 m/s 758 mmHg 68%
    23:00 +28°C° 0 mm 2 m/s 757 mmHg 72%

    21 Décembre, Vendredi

    Heure Température Précipitation Vent Pression Humidité
    00:00 +28°C° 0 mm 2 m/s 757 mmHg 75%
    01:00 +27°C° 0 mm 2 m/s 757 mmHg 78%
    02:00 +27°C° 0 mm 2 m/s 757 mmHg 81%
    03:00 +27°C° 0 mm 2 m/s 757 mmHg 83%
    04:00 +27°C° 0 mm 1 m/s 756 mmHg 86%
    05:00 +27°C° 0 mm 1 m/s 757 mmHg 86%
    06:00 +27°C° 0 mm 1 m/s 757 mmHg 87%
    07:00 +27°C° 0 mm 1 m/s 758 mmHg 87%
    08:00 +28°C° 0 mm 2 m/s 758 mmHg 80%
    09:00 +30°C° 0 mm 2 m/s 758 mmHg 73%
    10:00 +32°C° 0 mm 2 m/s 759 mmHg 66%
    11:00 +34°C° 0 mm 2 m/s 758 mmHg 61%
    12:00 +34°C° 0 mm 2 m/s 757 mmHg 57%
    13:00 +35°C° 0 mm 2 m/s 756 mmHg 52%
    14:00 +35°C° 0 mm 2 m/s 755 mmHg 52%
    15:00 +35°C° 0 mm 2 m/s 755 mmHg 52%
    16:00 +35°C° 0 mm 2 m/s 754 mmHg 52%
    17:00 +34°C° 0 mm 2 m/s 755 mmHg 55%
    18:00 +32°C° 0 mm 1 m/s 755 mmHg 59%
    19:00 +31°C° 0 mm 1 m/s 756 mmHg 63%
    20:00 +30°C° 0 mm 1 m/s 756 mmHg 64%
    21:00 +30°C° 0 mm 1 m/s 757 mmHg 66%
    22:00 +29°C° 0 mm 1 m/s 757 mmHg 68%
    23:00 +29°C° 0 mm 1 m/s 757 mmHg 69%

    22 Décembre, Samedi

    Heure Température Précipitation Vent Pression Humidité
    00:00 +28°C° 0 mm 2 m/s 757 mmHg 71%
    01:00 +28°C° 0 mm 2 m/s 756 mmHg 73%
    02:00 +28°C° 0 mm 2 m/s 756 mmHg 75%
    03:00 +27°C° 0 mm 1 m/s 756 mmHg 77%
    04:00 +27°C° 0 mm 1 m/s 756 mmHg 79%
    05:00 +27°C° 0 mm 1 m/s 756 mmHg 80%
    06:00 +27°C° 0 mm 1 m/s 756 mmHg 81%
    07:00 +25°C° 0 mm 0 m/s 757 mmHg 81%
    08:00 +27°C° 0 mm 0 m/s 757 mmHg 75%
    09:00 +28°C° 0 mm 0 m/s 757 mmHg 69%
    10:00 +30°C° 0 mm 0 m/s 758 mmHg 63%
    11:00 +33°C° 0 mm 1 m/s 757 mmHg 59%
    12:00 +35°C° 0 mm 2 m/s 756 mmHg 55%
    13:00 +36°C° 0 mm 2 m/s 755 mmHg 51%
    14:00 +35°C° 0 mm 2 m/s 755 mmHg 51%
    15:00 +35°C° 0 mm 2 m/s 754 mmHg 52%
    16:00 +35°C° 0 mm 2 m/s 754 mmHg 53%
    17:00 +34°C° 0 mm 2 m/s 754 mmHg 56%
    18:00 +32°C° 0 mm 2 m/s 755 mmHg 60%
    19:00 +31°C° 0 mm 1 m/s 756 mmHg 63%
    20:00 +30°C° 0 mm 1 m/s 756 mmHg 65%
    21:00 +30°C° 0 mm 1 m/s 756 mmHg 66%
    22:00 +27°C° 0 mm 0 m/s 756 mmHg 67%
    23:00 +29°C° 0 mm 1 m/s 756 mmHg 68%
    Voir plus